{"data":{"norad_id":55428,"epoch":"2026-09-20T22:00:03.000096Z","epoch_age_seconds":60586,"freshness":"FRESH","line1":"1 55428U 23014AP  26263.91670139  .00083930  00000+0  58877-2 0  9998","line2":"2 55428  70.0026 312.3547 0003988 258.1322  48.2130 15.04691528  5764","mean_motion":15.04691528,"eccentricity":0.0003988,"inclination_deg":70.0026,"raan_deg":312.3547,"arg_perigee_deg":258.1322,"mean_anomaly_deg":48.213,"bstar":0.0058877,"rev_number":576,"period_min":95.700678391804,"perigee_km":549.6888132117,"apogee_km":555.21665158226,"semimajor_km":6930.589732397,"source":"CELESTRAK","updated_at":"2026-09-21T09:00:33.221342Z"}}